Regional Weather Roundup
Issued by NWS

Home | Current Version | Previous Version | Graphics & Text | Print | Product List | Glossary On
Versions: 1 2 3 4 5 6 7 8 9 10 11 12 13 14 15 16 17 18 19 20 21 22 23 24 25 26 27 28 29 30 31 32 33 34 35 36 37 38 39 40 41 42 43 44 45 46 47 48 49 50
000
ASUS45 KCYS 241510
RWRWY

WYOMING REGIONAL WEATHER ROUNDUP
NATIONAL WEATHER SERVICE CHEYENNE WY
900 AM MDT TUE MAY 24 2016

NOTE:  "FAIR" INDICATES FEW OR NO CLOUDS BELOW 12,000 FEET
WITH NO SIGNIFICANT WEATHER AND/OR OBSTRUCTIONS TO VISIBILITY.

WYZ001-241600-
YELLOWSTONE NATIONAL PARK

CITY           SKY/WX    TMP DP  RH WIND       PRES   REMARKS
LK YELLOWSTONE   N/A     41  30  65 VRB3      29.97S
W YELLOWSTONE  NOT AVBL

$$
WYZ002>013-054>058-071-098>099-241600-
NORTHERN WYOMING

CITY           SKY/WX    TMP DP  RH WIND       PRES   REMARKS
JACKSON        SUNNY     43  30  61 CALM      29.96R
CODY           PTSUNNY   45  36  70 E3        29.92R
GREYBULL       FAIR      53  35  50 SE5       29.89S
WORLAND        FAIR      52  35  52 NW5       29.90S
SHERIDAN       FAIR      53  36  52 E3        29.92S
BUFFALO          N/A    N/A N/A N/A MISG      29.93R
GILLETTE       FAIR      55  35  47 N3        29.92R
HULETT         FAIR      55  37  50 N6        29.92F
NEWCASTLE      FAIR      59  30  33 S13       29.93R

$$
WYZ014>020-022>026-101>103-241600-
CENTRAL WYOMING

CITY           SKY/WX    TMP DP  RH WIND       PRES   REMARKS
BIG PINEY      PTSUNNY   40  33  76 E9        29.96F WCI  34
PINEDALE       CLOUDY    41  32  70 E3        29.98S
DUBOIS         PTSUNNY   45  28  53 CALM      29.94F
LANDER         FAIR      50  33  52 SE9       29.91S
RIVERTON       FAIR      51  35  54 NE7       29.92F
CASPER         FAIR      50  34  54 NW5       29.93S
DOUGLAS        FAIR      52  35  52 CALM      29.94S

$$
WYZ021-027>030-104>119-241600-
SOUTHERN WYOMING

CITY           SKY/WX    TMP DP  RH WIND       PRES   REMARKS
EVANSTON       CLOUDY    43  33  68 W5        29.94R
KEMMERER         N/A     45  34  65 NW3       29.96R
FORT BRIDGER   PTSUNNY   48  37  66 NW3       29.98R
ROCK SPRINGS   FAIR      50  35  56 NE3       29.94S
DIXON          FAIR      52  32  47 SE3       29.95F
RAWLINS        FAIR      48  32  53 E7        29.97R
SARATOGA       FAIR      48  32  53 S3        29.98R
LARAMIE        FAIR      50  38  63 S9        29.98S
CHEYENNE       PTSUNNY   56  44  64 S13       29.98S
TORRINGTON     FAIR      54  44  69 SE6       29.94R
PINE BLUFFS    CLOUDY    55  45  67 S6        29.98S

$$



USA.gov is the U.S. government's official web portal to all federal, state and local government web resources and services.